Location: Unspecified
(0.0000°N, 0.0000°E)
Time: 03:14:04
(UTC+00:00)

Hubble Space Telescope - Pass Details

Date: 17 November 2019
Orbit: 536 x 540 km, 28.5° (Epoch: 10 November)

Event Time Altitude Azimuth Distance (km) Brightness Sun altitude
Exits shadow 03:10:45 12° 104° (ESE) 1,653 4.0 -36.1°
Drops below altitude 10° 03:11:06 10° 106° (ESE) 1,784 4.2 -36.0°
Sets 03:13:25 0° 111° (ESE) 2,675 5.3 -35.5°
